Location: Milton Keynes
(52.0316°N, 0.7531°W)
Time: 15:40:52
(UTC+00:00)

Envisat - Pass Details

Date: 30 November 2022
Orbit: 763 x 765 km, 98.2° (Epoch: 06 February)

Event Time Altitude Azimuth Distance (km) Brightness Sun altitude
Rises 04:30:14 0° 14° (NNE) 3,248 6.4 -29.3°
Reaches altitude 10° 04:32:33 10° 15° (NNE) 2,317 5.6 -28.9°
Enters shadow 04:36:23 52° 19° (NNE) 952 3.5 -28.4°
